Weather History for Minneapolis, MN

Change the Weather History Date:

Monday, January 14, 2013

  Actual Average Record
Temperature  
Mean Temperature 10 °F 15 °F  
Max Temperature 14 °F 23 °F 49 °F (1944)
Min Temperature 5 °F 7 °F -26 °F (1972)
Degree Days  
Heating Degree Days 55 50  
Month to date heating degree days 619 694  
Since 1 July heating degree days 3391 3717  
Cooling Degree Days 0 0  
Month to date cooling degree days 0 0  
Year to date cooling degree days 0 0  
Moisture  
Dew Point 2 °F    
Average Humidity 74    
Maximum Humidity 87    
Minimum Humidity 61    
Precipitation  
Precipitation 0.00 in 0.02 in 0.34 in (2001)
Month to date precipitation 0.31 0.43  
Year to date precipitation 0.31 0.43  
Snow  
Snow 0.00 in 0.40 in 4.40 in (1999)
Month to date snowfall 1.0 5.6  
Since 1 July snowfall 16.8 27.4  
Snow Depth T in    
Sea Level Pressure  
Sea Level Pressure 30.39 in    
Wind  
Wind Speed 7 mph (SW)    
Max Wind Speed 14 mph    
Max Gust Speed 17 mph    
Visibility 10 miles    
Events      
T = Trace of Precipitation, MM = Missing Value Source: NWS Daily Summary

Daily Weather History Graph

Daily Weather History Graph

Search for Another Location

Airport:

Trip Planner

Search our weather history database for the weather conditions in past years. The results will help you decide how hot, cold, wet, or windy it might be!

Date:

Astronomy

Jan. 14, 2013 Rise Set
Actual Time 7:47 AM CST 4:57 PM CST
Civil Twilight 7:14 AM CST 5:29 PM CST
Nautical Twilight 6:38 AM CST 6:06 PM CST
Astronomical Twilight 6:03 AM CST 6:41 PM CST
Moon 9:11 AM CST (1/14) 8:55 PM CST (1/14)
Length of Visible Light 10h 14m
Length of Day
9h 09m
Waxing Crescent, 11% of the Moon is Illuminated
Jan 14
Waxing Crescent
Jan 18
First Quarter
Jan 26
Full
Feb 3
Last Quarter
Feb 10
New

Hourly Weather History & Observations

Time (CST) Temp. Windchill Dew Point Humidity Pressure Visibility Wind Dir Wind Speed Gust Speed Precip Events Conditions
12:53 AM 5.0 °F -4.1 °F 1.0 °F 84% 30.32 in 10.0 mi SW 4.6 mph - N/A   Clear
1:53 AM 5.0 °F -5.6 °F 1.0 °F 84% 30.33 in 10.0 mi SW 5.8 mph - N/A   Clear
2:53 AM 5.0 °F -2.1 °F 1.0 °F 84% 30.33 in 10.0 mi WSW 3.5 mph - N/A   Clear
3:53 AM 5.0 °F -4.1 °F 1.9 °F 87% 30.34 in 10.0 mi WSW 4.6 mph - N/A   Clear
4:53 AM 5.0 °F -5.6 °F 1.0 °F 84% 30.35 in 10.0 mi SW 5.8 mph - N/A   Clear
5:53 AM 5.0 °F -5.6 °F 1.0 °F 84% 30.38 in 10.0 mi WSW 5.8 mph - N/A   Partly Cloudy
6:53 AM 6.1 °F -4.3 °F 1.9 °F 83% 30.40 in 10.0 mi West 5.8 mph - N/A   Overcast
7:53 AM 6.1 °F -6.8 °F 1.9 °F 83% 30.42 in 10.0 mi West 8.1 mph - N/A   Mostly Cloudy
8:23 AM 6.8 °F -6.9 °F 1.4 °F 79% 30.37 in 10.0 mi West 9.2 mph - N/A   Mostly Cloudy
8:53 AM 6.1 °F -7.8 °F 1.0 °F 80% 30.45 in 10.0 mi West 9.2 mph - N/A   Mostly Cloudy
9:53 AM 6.1 °F -5.6 °F 1.0 °F 80% 30.46 in 10.0 mi West 6.9 mph - N/A   Partly Cloudy
10:53 AM 8.1 °F -6.2 °F -0.0 °F 70% 30.46 in 10.0 mi West 10.4 mph - N/A   Scattered Clouds
11:53 AM 10.9 °F -0.8 °F 1.0 °F 64% 30.45 in 10.0 mi West 8.1 mph - N/A   Partly Cloudy
12:53 PM 12.2 °F -2.5 °F 1.4 °F 62% 30.36 in 10.0 mi West 12.7 mph - N/A   Scattered Clouds
1:53 PM 12.9 °F 0.7 °F 1.0 °F 59% 30.43 in 10.0 mi West 9.2 mph - N/A   Partly Cloudy
2:53 PM 12.9 °F 2.6 °F 1.0 °F 59% 30.43 in 10.0 mi NW 6.9 mph - N/A   Partly Cloudy
3:53 PM 12.2 °F 6.1 °F 1.4 °F 62% 30.36 in 10.0 mi West 3.5 mph - N/A   Clear
4:53 PM 12.0 °F 4.1 °F 1.0 °F 61% 30.43 in 10.0 mi SSW 4.6 mph - N/A   Partly Cloudy
5:53 PM 12.0 °F 2.7 °F 1.9 °F 64% 30.43 in 10.0 mi SSW 5.8 mph - N/A   Partly Cloudy
6:53 PM 12.0 °F 5.9 °F 3.0 °F 67% 30.42 in 10.0 mi South 3.5 mph - N/A   Mostly Cloudy
7:53 PM 10.0 °F 1.8 °F 3.0 °F 73% 30.41 in 10.0 mi SE 4.6 mph - N/A   Mostly Cloudy
8:53 PM 10.0 °F 1.8 °F 3.9 °F 76% 30.40 in 10.0 mi SE 4.6 mph - N/A   Mostly Cloudy
9:53 PM 10.0 °F 3.6 °F 3.9 °F 76% 30.37 in 9.0 mi SE 3.5 mph - N/A   Partly Cloudy
10:53 PM 9.0 °F 0.6 °F 3.9 °F 80% 30.35 in 9.0 mi SE 4.6 mph - N/A   Clear
11:53 PM 10.0 °F 1.8 °F 5.0 °F 80% 30.34 in 9.0 mi SE 4.6 mph - N/A   Clear